Location: Cossonay
(46.5833°N, 6.4167°E)
Time: 01:10:46
(UTC+00:00)

Daily predictions for brighter satellites

Satellite Brightness Start Highest point End
(mag) Time Altitude Azimuth Time Altitude Azimuth Time Altitude Azimuth
STARLINK-1303 4.1 00:05:53 39° ESE 00:05:53 39° ESE 00:08:51 10° ENE
STARLINK-66 3.5 00:07:08 48° E 00:07:08 48° E 00:09:37 10° ENE
Cosmos 1570 Rocket 4.1 00:04:53 41° S 00:06:37 64° ESE 00:11:50 10° NNE
Cosmos 1400 Rocket 4.5 00:03:27 10° N 00:07:07 29° ENE 00:09:10 19° ESE
Cosmos 1763 Rocket 3.4 00:05:57 41° SSW 00:07:44 79° WNW 00:12:50 10° NNE
Cosmos 1709 Rocket 4.0 00:05:05 35° SSE 00:07:48 70° E 00:13:57 10° NNE
STARLINK-1316 4.3 00:09:23 29° E 00:09:23 29° E 00:11:13 10° ENE
Landsat 4 4.4 00:05:11 10° N 00:08:42 42° WNW 00:09:24 37° W
Cosmos 2227 Rocket 2.7 00:03:23 10° NW 00:08:42 42° WSW 00:10:10 35° SW
STARLINK-1312 3.9 00:09:13 43° ESE 00:09:13 43° ESE 00:12:21 10° ENE
STARLINK-1257 4.3 00:10:14 30° E 00:10:14 30° E 00:12:07 10° ENE
STARLINK-1256 4.2 00:11:11 31° E 00:11:11 31° E 00:13:05 10° ENE
STARLINK-1213 4.2 00:12:02 31° E 00:12:02 31° E 00:13:57 10° ENE
STARLINK-1263 4.1 00:12:53 32° E 00:12:53 32° E 00:14:51 10° ENE
STARLINK-1259 4.1 00:13:47 33° E 00:13:47 33° E 00:15:48 10° ENE
Cosmos 2084 Rocket 3.5 00:08:27 10° NW 00:12:57 83° NE 00:14:58 33° SE
STARLINK-1265 4.0 00:14:09 34° E 00:14:09 34° E 00:16:14 10° ENE
STARLINK-1285 4.0 00:14:38 34° E 00:14:38 34° E 00:16:41 10° ENE
STARLINK-1296 3.9 00:16:22 36° E 00:16:22 36° E 00:18:29 10° ENE
SL-16 R/B 3.7 00:10:42 10° SE 00:16:16 37° ENE 00:21:53 10° N
STARLINK-1260 3.9 00:17:14 37° E 00:17:14 37° E 00:19:24 10° ENE
Cosmos 1758 Rocket 3.6 00:15:28 48° SSE 00:16:36 74° E 00:21:02 10° NNE
STARLINK-1318 3.8 00:18:06 38° E 00:18:06 38° E 00:20:18 10° ENE
STARLINK-75 3.1 00:18:02 64° E 00:18:02 64° E 00:20:53 10° ENE
STARLINK-1275 3.8 00:18:59 40° E 00:18:59 40° E 00:21:13 10° ENE
STARLINK-1309 3.7 00:19:50 41° E 00:19:50 41° E 00:22:06 10° ENE
STARLINK-1282 3.7 00:20:42 42° E 00:20:42 42° E 00:23:00 10° ENE
STARLINK-1283 3.5 00:20:03 58° S 00:20:30 63° SE 00:24:34 10° ENE
STARLINK-1313 3.4 00:21:38 50° E 00:21:38 50° E 00:24:07 10° ENE
STARLINK-80 3.4 00:21:07 61° SSE 00:21:10 61° SE 00:24:55 10° ENE
IRAS Rocket 4.5 00:18:06 25° SE 00:21:21 67° ENE 00:26:51 10° NNW
STARLINK-1279 3.3 00:22:32 52° E 00:22:32 52° E 00:25:03 10° ENE
STARLINK-1298 3.5 00:23:16 46° E 00:23:16 46° E 00:25:41 10° ENE
Nadezhda 1 Rocket 4.5 00:16:52 10° NNW 00:22:50 48° W 00:25:28 31° SW
CZ-4 R/B 3.9 00:18:33 10° N 00:23:15 66° WNW 00:24:50 40° SW
STARLINK-1293 3.5 00:24:09 48° E 00:24:09 48° E 00:26:37 10° ENE
STARLINK-1255 3.4 00:25:54 51° E 00:25:54 51° E 00:28:26 10° ENE
SL-16 R/B 3.9 00:22:44 16° SE 00:25:21 21° E 00:29:30 10° NE
Cosmos 2208 Rocket 4.0 00:23:37 40° S 00:25:35 78° ESE 00:30:59 10° NNE
STARLINK-22 3.1 00:26:16 63° E 00:26:16 63° E 00:29:06 10° ENE
STARLINK-1297 3.3 00:26:32 61° SE 00:26:32 61° SE 00:30:02 10° ENE
STARLINK 1040 4.1 00:26:21 30° NNW 00:26:36 31° NNW 00:28:56 10° NE
STARLINK-1311 3.2 00:28:27 54° ENE 00:28:27 54° ENE 00:30:50 10° ENE
Cosmos 2285 Rocket 4.0 00:22:25 10° NNW 00:28:46 72° WSW 00:31:55 31° S
CZ-2D R/B 3.4 00:27:42 10° NE 00:32:17 30° E 00:35:02 19° SE
USA 81 4.0 00:30:17 38° SSW 00:32:20 77° W 00:37:39 10° N
Cosmos-2242 2.9 00:28:55 10° N 00:33:11 85° W 00:34:23 47° S
Meteor 2-10 Rocket 3.7 00:28:39 10° NNW 00:33:39 54° W 00:35:15 38° SSW
USA 215 3.2 00:28:07 13° SE 00:34:03 65° SW 00:40:35 10° NW
Cosmos 1953 Rocket 3.7 00:33:32 40° SSE 00:34:58 64° E 00:39:20 10° NNE
Cosmos 2221 4.5 00:32:13 10° NNE 00:35:50 25° ENE 00:39:26 10° SE
STARLINK-42 2.9 00:36:26 67° WNW 00:36:39 71° NNW 00:39:47 10° ENE
BREEZE-M R/B 3.6 00:30:33 10° W 00:36:48 60° NNW 00:40:04 10° ENE
Meteor 1-21 Rocket 4.5 00:34:27 32° SW 00:36:59 60° WNW 00:42:44 10° N
STARLINK-1029 3.7 00:39:04 40° ESE 00:39:04 40° ESE 00:41:33 10° ENE
STARLINK-34 3.1 00:40:02 55° E 00:40:02 55° E 00:42:39 10° ENE
STARLINK-60 3.7 00:37:05 10° NW 00:40:13 53° NNE 00:43:21 10° ESE
STARLINK-41 2.9 00:40:11 66° WNW 00:40:23 70° NNW 00:43:27 10° ENE
GP-B 3.7 00:36:39 10° NNE 00:40:59 50° E 00:42:58 29° SSE
CZ-4C R/B 4.5 00:38:35 20° SE 00:41:18 47° ENE 00:45:35 10° N
STARLINK-1272 3.0 00:42:02 64° SW 00:42:31 84° SSE 00:46:04 10° ENE
Cosmos 540 Rocket 3.4 00:41:07 36° SSW 00:43:13 77° WNW 00:48:23 10° NNE
STARLINK-62 2.9 00:43:45 62° ESE 00:43:45 62° ESE 00:46:30 10° ENE
STARLINK-1307 3.2 00:46:48 51° SW 00:47:40 87° SSE 00:51:24 10° ENE
Cosmos 2360 Rocket 4.4 00:45:07 10° SE 00:47:50 14° E 00:50:32 10° ENE
Helios 1B rocket 3.4 00:45:10 10° N 00:48:59 37° WNW 00:50:24 28° WSW
STARLINK-1290 3.2 00:50:11 47° WSW 00:51:11 89° NNW 00:54:56 10° ENE
Cosmos 1980 Rocket 2.2 00:51:50 31° SW 00:54:37 75° WNW 01:00:19 10° NNE
Cosmos 2074 Rocket 4.2 00:51:22 25° SSE 00:55:10 65° E 01:01:23 10° NNE
Meteor 1-29 3.8 00:54:28 10° N 00:57:35 36° WNW 00:58:11 33° W
STARLINK-1306 4.4 00:57:24 33° SSE 00:58:01 34° SE 01:01:50 10° ENE
STARLINK-1317 3.5 00:56:33 34° WSW 00:58:10 78° NNW 01:02:05 10° ENE
Cosmos 1455 3.4 00:56:36 10° NNW 00:59:44 26° W 01:00:05 25° W
Cosmos 1328 4.3 00:59:35 36° WSW 01:00:42 48° WNW 01:04:35 10° N
STARLINK-55 3.9 01:00:34 24° W 01:02:07 44° NNW 01:05:13 10° NE
STARLINK-1274 3.3 01:00:56 37° WSW 01:02:12 72° NNW 01:05:45 10° ENE
STARLINK-1262 4.4 01:01:53 32° SSE 01:02:34 35° SE 01:06:21 10° ENE
STARLINK-1291 3.5 01:04:15 31° WSW 01:05:53 71° NNW 01:09:38 10° ENE
Meteor 1-11 4.2 01:03:54 30° SSW 01:06:49 84° W 01:12:26 10° N
Cosmos 1703 4.2 01:05:53 30° WSW 01:07:01 36° WNW 01:10:41 10° N
STARLINK-1300 4.3 01:06:40 33° SSE 01:07:31 38° SE 01:11:22 10° ENE
Lacrosse 4 Rocket 3.4 01:05:22 10° WNW 01:07:20 15° W 01:07:20 15° W
STARLINK-1264 3.6 01:07:26 29° WSW 01:09:13 68° NNW 01:12:57 10° ENE
Cosmos 1825 Rocket 4.4 01:08:39 28° WSW 01:10:13 37° WNW 01:14:18 10° N
ADEOS II 3.7 01:05:55 10° NE 01:10:19 26° E 01:14:39 10° SSE
Cosmos 2263 Rocket 2.1 01:05:22 10° NNW 01:11:01 89° WSW 01:15:58 13° SSE
STARLINK-1295 4.2 01:11:26 34° S 01:12:27 41° SE 01:16:22 10° ENE
Timation 1 Rocket 4.4 01:06:38 10° NW 01:12:31 60° WSW 01:16:19 22° S
STARLINK-1267 3.6 01:10:39 26° W 01:12:35 65° NNW 01:16:19 10° ENE
NOSS 2-1 (C) 3.5 01:12:04 37° SSE 01:12:51 44° ESE 01:16:15 10° NE
STARLINK-29 3.8 01:09:52 10° NW 01:13:00 51° NNE 01:16:08 10° ESE
STARLINK-28 4.3 01:11:34 16° W 01:13:42 38° NNW 01:16:44 10° NE
Cosmos 2297 Rocket 4.3 01:13:12 10° W 01:14:01 10° W 01:14:45 10° WSW
UNK 3.7 01:11:41 23° SSE 01:14:30 87° ENE 01:19:07 10° NNW
SL-4 R/B 2.3 01:09:45 10° WNW 01:14:38 85° SSW 01:19:19 10° ESE
STARLINK-64 3.2 01:14:12 45° SSW 01:15:07 66° SE 01:18:41 10° ENE
AQUA 4.5 01:10:50 10° NNE 01:15:28 48° E 01:18:24 21° SSE
USA 229 DEB 3.9 01:09:19 10° NW 01:16:38 88° SW 01:24:16 10° SE
USA 229 3.9 01:09:25 10° NW 01:16:44 88° SW 01:24:23 10° SE
STARLINK-1287 4.1 01:16:12 34° S 01:17:25 44° SE 01:21:22 10° ENE
NOSS 3-1 (C) 4.0 01:09:58 10° NW 01:17:30 82° SW 01:26:11 10° SSE
NOSS 2-1 (D) 3.3 01:16:50 38° S 01:17:43 51° SE 01:21:12 10° NE
Cosmos 372 Rocket 4.4 01:13:50 10° NW 01:18:40 42° WSW 01:20:47 28° SSW
STARLINK-1207 3.8 01:17:09 22° W 01:19:22 59° NNW 01:23:05 10° ENE
NPP 3.9 01:14:05 10° NNE 01:19:28 66° ESE 01:22:54 23° S
Cosmos 2184 Rocket 3.9 01:16:27 25° S 01:20:16 87° W 01:26:30 10° N
CZ-4C R/B 3.8 01:17:20 10° W 01:22:05 31° NNW 01:27:40 10° NNE
STARLINK-1266 3.9 01:20:25 20° W 01:22:47 57° NNW 01:26:29 10° NE
BREEZE-M DEB (TANK) 1.3 01:23:14 82° WSW 01:23:18 90° W 01:25:52 10° ENE
STARLINK-33 4.3 01:21:41 15° W 01:23:55 35° NNW 01:26:50 10° NE
Cosmos 1892 3.9 01:21:53 17° SSE 01:24:13 35° E 01:27:42 10° NNE
NOSS 3-1 (A) 4.2 01:18:09 10° NW 01:25:40 81° NE 01:34:20 10° SE
STARLINK-1299 3.8 01:24:06 32° SSW 01:25:50 60° SE 01:30:02 10° ENE
STARLINK-1284 3.9 01:23:41 19° W 01:26:11 54° NNW 01:29:53 10° NE
STARLINK-1302 3.9 01:25:46 32° SSW 01:27:19 52° SE 01:31:22 10° ENE
STARLINK-26 4.5 01:24:28 12° W 01:27:24 37° NNW 01:30:38 10° NE
BREEZE-M DEB (TANK) 2.3 01:25:33 10° WNW 01:27:57 42° N 01:30:20 10° E
STARLINK-1258 4.0 01:26:59 17° W 01:29:38 52° NNW 01:33:19 10° NE
Cosmos 1869 3.3 01:26:39 10° N 01:30:31 77° E 01:33:00 21° SSE
Cosmos 2150 Rocket 4.4 01:26:26 10° NNW 01:31:18 44° WSW 01:33:54 25° SSW
STARLINK-1273 3.8 01:30:32 31° SSW 01:32:16 56° SE 01:36:21 10° ENE
STARLINK-1292 4.1 01:30:17 16° W 01:33:05 50° NNW 01:36:45 10° NE
Cosmos 2322 Rocket 2.5 01:29:42 22° S 01:33:18 59° ESE 01:38:50 10° NNE
STARLINK-1288 3.7 01:35:19 29° SW 01:37:14 61° SE 01:41:20 10° ENE
STARLINK-61 3.9 01:35:51 30° SSW 01:37:22 46° SE 01:41:08 10° ENE
STARLINK-1268 4.2 01:36:30 14° W 01:38:48 37° NNW 01:41:43 10° NE
STARLINK-1289 4.2 01:36:52 13° W 01:39:57 47° NNW 01:43:37 10° NE
Cosmos 1697 Rocket 4.5 01:36:45 10° W 01:41:12 23° NW 01:45:41 10° N
Resurs 1-4 Rocket 2.2 01:36:06 10° N 01:41:24 71° WNW 01:44:54 22° SSW
STARLINK-1301 4.3 01:38:34 12° W 01:41:57 46° NNW 01:45:41 10° NE
STARLINK-1308 3.6 01:40:08 27° SW 01:42:15 67° SE 01:46:23 10° ENE
Cosmos 1076 Rocket 3.9 01:39:51 18° S 01:42:56 61° E 01:47:16 10° NNE
STARLINK-1303 4.3 01:40:12 12° W 01:43:28 45° NNW 01:47:05 10° NE
Cosmos 1400 Rocket 4.2 01:40:03 10° NW 01:43:29 25° W 01:44:45 22° WSW
STARLINK-1316 4.3 01:41:30 12° W 01:44:05 35° NNW 01:47:01 10° NE
STARLINK-1257 4.3 01:42:21 12° W 01:44:58 35° NNW 01:47:55 10° NE
Cosmos 1125 Rocket 3.6 01:39:57 10° NNW 01:45:00 54° WSW 01:48:54 17° S
STARLINK-1256 4.3 01:43:18 12° W 01:45:57 35° NNW 01:48:52 10° NE
STARLINK-58 4.0 01:44:00 15° W 01:46:20 42° NNW 01:49:24 10° NE
STARLINK-1213 4.4 01:44:09 11° W 01:46:50 34° NNW 01:49:45 10° NE
STARLINK-1312 4.4 01:43:32 11° W 01:46:58 44° NNW 01:50:36 10° NE
Meteor 2-17 Rocket 4.5 01:42:54 20° SSW 01:47:13 73° W 01:53:21 10° N
H-2A R/B 4.5 01:43:44 10° ESE 01:47:19 24° ENE 01:50:57 10° N
STARLINK-1263 4.4 01:45:01 11° W 01:47:44 34° NNW 01:50:38 10° NE
STARLINK-52 3.0 01:45:09 10° WNW 01:48:23 81° NNE 01:51:36 10° ESE
STARLINK-1259 4.4 01:45:54 11° W 01:48:40 34° NNW 01:51:34 10° NE
STARLINK-1265 4.4 01:46:15 11° W 01:49:04 34° NNW 01:52:01 10° NE
STARLINK-1285 4.4 01:46:45 11° W 01:49:33 34° NNW 01:52:27 10° NE
STARLINK-1296 4.4 01:48:29 10° W 01:51:22 33° NNW 01:54:15 10° NE
STARLINK-1304 3.6 01:49:41 23° SW 01:52:10 77° SSE 01:56:20 10° ENE
STARLINK-1260 4.5 01:49:24 10° W 01:52:16 33° NNW 01:55:10 10° NE
Cosmos 1408 3.5 01:49:31 14° SSE 01:52:25 44° E 01:55:56 10° NNE
STARLINK-1318 4.5 01:50:19 10° W 01:53:11 33° NNW 01:56:04 10° NE
STARLINK-1275 4.5 01:51:14 10° W 01:54:06 32° NNW 01:56:59 10° NE
Cosmos 2154 Rocket 4.0 01:49:51 18° SSW 01:54:37 75° W 02:00:52 10° N
GEOS 3 Rocket 3.6 01:51:39 10° SSE 01:56:50 74° SW 02:02:09 10° NW
STARLINK-48 3.9 01:53:48 15° WSW 01:56:55 60° NNW 02:00:46 10° ENE
STARLINK-1278 3.7 01:55:21 19° WSW 01:58:21 88° NNW 02:02:37 10° ENE
Cosmos 1825 3.5 01:55:35 10° SSE 01:59:02 35° E 02:02:30 10° NNE
SL-16 R/B 3.0 01:55:29 17° SSW 01:59:48 42° W 02:05:39 10° NNW
STARLINK-1280 3.7 01:57:08 18° WSW 02:00:11 86° NNW 02:04:29 10° ENE
STARLINK-69 4.4 01:59:20 20° S 02:01:04 31° SE 02:04:17 10° ENE
Iridium 2 4.3 01:57:36 10° NNW 02:01:09 39° W 02:03:12 21° SW
SL-08 R/B 3.7 01:57:03 10° SSE 02:01:37 63° ENE 02:06:11 10° N
STARLINK-21 4.5 02:00:55 19° S 02:02:43 30° SE 02:05:55 10° ENE
STARLINK-45 4.3 02:02:35 20° S 02:04:28 33° SE 02:07:46 10° ENE
IRS-P3 4.4 01:59:33 10° NNE 02:04:54 68° ESE 02:09:52 12° S
Cosmos 1844 Rocket 3.4 01:59:58 10° NNW 02:05:31 58° ENE 02:11:00 10° SE
NOSS 2-1 (E) 3.4 02:04:58 19° WSW 02:07:10 55° NW 02:10:51 10° NNE
STARLINK-76 4.3 02:05:36 19° S 02:07:35 33° SE 02:10:52 10° ENE
STARLINK-70 4.2 02:05:59 19° SSW 02:08:01 35° SE 02:11:24 10° ENE
STARLINK-1286 3.6 02:05:37 17° WSW 02:08:50 83° NNW 02:13:02 10° ENE
SL-16 R/B 2.4 02:04:36 17° SW 02:08:54 65° WNW 02:14:36 10° NNE
STARLINK-23 4.3 02:07:10 19° SSW 02:09:12 34° SE 02:12:31 10° ENE
STARLINK-32 4.2 02:08:37 19° SSW 02:10:39 34° SE 02:13:56 10° ENE
IRIDIUM 104 4.4 02:07:39 15° SSW 02:12:02 70° W 02:17:16 10° N
STARLINK-1281 3.6 02:08:48 16° WSW 02:12:04 82° NNW 02:16:14 10° ENE
CZ-2D R/B 2.8 02:07:35 10° N 02:12:26 40° WNW 02:16:21 15° SW
STARLINK-40 4.2 02:10:18 18° SSW 02:12:26 36° SE 02:15:47 10° ENE
Cosmos 2221 3.4 02:09:30 10° NNW 02:13:27 34° W 02:16:17 16° SSW
STARLINK-44 4.1 02:11:49 18° SSW 02:14:00 37° SE 02:17:23 10° ENE
STARLINK-1029 4.3 02:11:32 10° W 02:14:30 36° NNW 02:17:29 10° NE
STARLINK-37 4.0 02:13:33 18° SSW 02:15:49 41° SE 02:19:14 10° ENE
Cosmos 773 Rocket 4.5 02:11:02 11° S 02:15:55 59° ESE 02:21:08 10° NNE
STARLINK-60 3.9 02:13:26 10° W 02:16:08 25° SW 02:18:50 10° SSE
STARLINK-1310 3.7 02:13:35 14° WSW 02:17:04 77° NNW 02:21:13 10° ENE
STARLINK-36 4.1 02:14:56 18° SSW 02:17:14 39° SE 02:20:39 10° ENE
FALCON 9 DEB 3.1 02:14:14 10° WNW 02:17:42 89° NNE 02:21:09 10° ESE
STARLINK-1353 4.5 02:14:23 10° NW 02:18:18 52° NNE 02:22:13 10° E
Nadezhda 3 Rocket 4.4 02:12:48 10° NNW 02:18:49 48° W 02:24:39 11° SSW
Cosmos 1315 Rocket 3.9 02:15:51 10° NW 02:19:10 26° W 02:21:25 16° SW
STARLINK-63 3.9 02:18:10 17° SSW 02:20:35 43° SE 02:24:03 10° ENE
STARLINK-35 3.9 02:19:32 17° SSW 02:21:57 42° SE 02:25:21 10° ENE
STARLINK-1319 3.8 02:18:21 13° WSW 02:22:02 73° NNW 02:26:11 10° ENE
CBERS-1 4.2 02:17:05 10° N 02:22:10 62° WNW 02:26:39 13° SSW
STARLINK-1375 4.4 02:18:45 10° WNW 02:22:42 54° NNE 02:26:39 10° E
STARLINK-51 3.9 02:21:14 17° SSW 02:23:45 44° SE 02:27:13 10° ENE
Cosmos 2366 rocket 4.4 02:18:57 10° S 02:25:07 66° E 02:31:23 10° NNE
STARLINK-30 3.8 02:22:49 16° SSW 02:25:25 46° SE 02:28:55 10° ENE
STARLINK-72 3.8 02:24:13 16° SSW 02:26:48 46° SE 02:30:15 10° ENE
STARLINK-1277 3.8 02:23:08 11° WSW 02:27:01 68° NNW 02:31:10 10° ENE
STARLINK-1350 4.3 02:23:06 10° WNW 02:27:04 57° NNE 02:31:01 10° ESE
Shenzhou-11 Module 2.3 02:26:47 19° SW 02:28:03 31° S 02:30:17 10° ESE
STARLINK-1021 4.4 02:26:14 14° SSW 02:29:27 40° SE 02:33:20 10° ENE
STARLINK-59 3.6 02:27:25 15° SW 02:30:08 52° SE 02:33:38 10° ENE
Cosmos 2058 3.7 02:27:00 14° SW 02:30:13 38° WNW 02:34:11 10° N
Cosmos 2360 Rocket 2.2 02:25:44 12° SSW 02:30:56 88° ESE 02:36:37 10° NNE
STARLINK-1352 4.2 02:27:16 10° WNW 02:31:15 59° NNE 02:35:12 10° ESE
STARLINK-1010 4.3 02:28:17 14° SSW 02:31:41 44° SE 02:35:44 10° ENE
STARLINK-56 3.7 02:29:04 15° SW 02:31:54 52° SE 02:35:26 10° ENE
STARLINK-1276 3.9 02:27:57 10° WSW 02:32:02 65° NNW 02:36:10 10° ENE
STARLINK-73 3.6 02:30:38 14° SW 02:33:31 53° SE 02:37:05 10° ENE
Cosmos 1328 Rocket 4.4 02:29:58 10° N 02:34:17 52° ENE 02:38:31 10° SSE
STARLINK-1019 4.3 02:30:59 13° SSW 02:34:22 43° SE 02:38:19 10° ENE
STARLINK-38 3.6 02:32:12 14° SW 02:35:09 55° SE 02:38:43 10° ENE
STARLINK-1368 4.1 02:31:57 10° WNW 02:35:58 63° NNE 02:39:57 10° ESE
STARLINK-65 3.5 02:33:46 14° SW 02:36:47 57° SE 02:40:21 10° ENE
STARLINK-1305 4.0 02:32:53 10° WSW 02:37:00 61° NNW 02:41:07 10° ENE
STARLINK-68 3.5 02:34:23 14° SW 02:37:28 61° SE 02:41:05 10° ENE
STARLINK-1306 4.1 02:33:32 10° WSW 02:37:41 59° NNW 02:41:51 10° ENE
STARLINK-53 3.4 02:35:24 13° SW 02:38:29 61° SE 02:42:05 10° ENE
STARLINK-1012 4.2 02:35:47 12° SSW 02:39:21 47° SE 02:43:20 10° ENE
Cosmos 1980 Rocket 4.3 02:36:04 10° W 02:39:39 17° NW 02:43:16 10° N
STARLINK-1369 4.0 02:36:23 10° WNW 02:40:24 66° NNE 02:44:25 10° ESE
STARLINK-50 3.6 02:37:26 13° SW 02:40:46 59° SE 02:44:31 10° ENE
STARLINK-1262 4.1 02:37:56 10° WSW 02:42:02 58° NNW 02:46:08 10° ENE
SL-24 DEB 4.2 02:37:32 10° N 02:42:09 81° W 02:46:45 10° S
Cosmos 2333 Rocket 3.1 02:39:11 10° S 02:44:31 45° ESE 02:49:54 10° NE
STARLINK-1372 3.9 02:40:34 10° WNW 02:44:33 70° NNE 02:48:30 10° ESE
STARLINK-71 3.7 02:41:45 11° SW 02:45:30 67° SSE 02:49:30 10° ENE
Meteor 1-28 Rocket 3.2 02:42:24 10° S 02:46:07 64° W 02:49:51 10° NNW
STARLINK-1300 4.2 02:42:56 10° W 02:47:01 55° NNW 02:51:06 10° ENE
Landsat 5 4.0 02:42:57 10° SSE 02:47:25 70° ENE 02:51:51 10° N
Cosmos 2219 Rocket 3.1 02:43:21 10° S 02:48:37 45° ESE 02:53:56 10° NE
STARLINK-29 3.9 02:46:14 10° W 02:48:59 26° SW 02:51:43 10° SSE
STARLINK-1026 4.0 02:45:20 11° SW 02:49:15 55° SE 02:53:19 10° ENE
STARLINK-1378 3.8 02:45:17 10° WNW 02:49:19 74° NNE 02:53:20 10° ESE
Cosmos 1727 Rocket 4.2 02:43:17 10° N 02:49:30 78° E 02:55:40 10° SSE
Cosmos 2322 4.0 02:44:17 10° SSW 02:49:57 70° ESE 02:55:40 10° NNE
ADEOS II 2.6 02:45:11 10° N 02:50:13 46° WNW 02:55:12 10° SW
STARLINK-1295 4.3 02:47:56 10° W 02:52:00 52° NNW 02:56:04 10° ENE
Cosmos 864 Rocket 4.5 02:46:40 10° S 02:52:47 83° W 02:59:00 10° N
IRS-1D 4.5 02:48:09 10° N 02:52:54 35° WNW 02:57:33 10° SW
STARLINK-1379 3.7 02:49:46 10° WNW 02:53:49 78° NNE 02:57:51 10° ESE
SL-4 R/B 3.5 02:50:11 10° W 02:53:51 22° SW 02:57:24 10° S
IDEFIX/ARIANE 42P 2.9 02:48:35 10° NNE 02:53:52 69° ESE 02:59:04 10° S
Cosmos 2263 Rocket 3.9 02:51:19 10° WNW 02:54:04 14° W 02:56:48 10° SW
STARLINK-1013 3.9 02:50:10 10° SW 02:54:15 59° SE 02:58:20 10° ENE
Cosmos 1606 2.6 02:51:06 10° N 02:54:53 84° W 02:58:41 10° S
ERS-2 2.2 02:52:08 10° S 02:55:43 56° WSW 02:59:21 10° NNW
STARLINK-1287 4.4 02:52:57 10° W 02:56:59 50° NNW 03:01:02 10° ENE
STARLINK-25 3.1 02:53:45 10° SW 02:57:12 82° SSE 03:00:41 10° ENE
STARLINK-1329 3.7 02:53:36 10° WNW 02:57:40 82° NNE 03:01:42 10° ESE
ATLAS 5 CENTAUR R/B 3.8 02:56:04 10° SSE 02:58:58 19° ESE 03:02:03 10° ENE
STARLINK-1009 3.8 02:55:06 10° SW 02:59:12 64° SE 03:03:19 10° ENE
Cosmos 2333 4.3 02:53:47 10° SSW 02:59:22 78° ESE 03:05:01 10° NNE
ARIANE 5 R/B 2.7 02:54:31 10° N 02:59:28 59° WNW 03:04:21 10° SSW
BREEZE-M R/B 1.9 02:56:12 10° WNW 02:59:33 89° SSW 03:01:58 10° ESE
Cosmos 1892 4.5 02:57:23 10° WSW 03:00:03 18° WNW 03:02:43 10° NNW
STARLINK-1362 3.6 02:58:09 10° WNW 03:02:12 87° NNE 03:06:16 10° ESE
STARLINK-1320 2.8 03:00:23 10° WNW 03:03:29 64° SW 03:06:34 10° SE
STARLINK-1322 2.8 03:00:44 10° WNW 03:03:50 64° SSW 03:06:55 10° SE
CZ-2C R/B 2.9 03:00:20 10° NNE 03:04:07 78° ESE 03:07:57 10° S
STARLINK-1324 2.8 03:01:03 10° WNW 03:04:09 63° SSW 03:07:14 10° SE
STARLINK-1015 3.8 03:00:03 10° SW 03:04:10 69° SE 03:08:17 10° ENE
STARLINK-1294 2.8 03:01:21 10° WNW 03:04:28 63° SW 03:07:34 10° SE
CZ-2D R/B 3.6 03:00:18 10° N 03:04:32 68° WNW 03:08:52 10° SSW
STARLINK-1261 2.8 03:01:45 10° WNW 03:04:50 62° SW 03:07:55 10° SE
